Location: Unspecified
(35.6961°N, 0.0000°E)
Time: 08:51:15
(UTC+00:00)

Altair - Pass Details

Date: 20 May 2019
Orbit: 1501 x 1683 km, 47.2° (Epoch: 25 June)

Event Time Altitude Azimuth Distance (km) Brightness Sun altitude
Rises 08:41:32 0° 294° (WNW) 4,933 9.7 44.6°
Reaches altitude 10° 08:44:57 10° 301° (WNW) 3,935 9.4 45.3°
Maximum altitude 08:54:36 47° 13° (NNE) 2,078 8.8 47.3°
Drops below altitude 10° 09:03:57 10° 86° (E) 3,818 10.5 49.1°
Sets 09:07:12 0° 92° (E) 4,777 10.7 49.8°
